Home > Weather > Bagpat > Past weeks

Flag for India Weather for the Past 2 Weeks in Bagpat, Uttar Pradesh, India

Now
82 °F

Haze.


Feels Like: 80 °F
Forecast: 87 / 104 °F
Wind: 3 mph from West

Location: New Delhi Palam Airport

Current Time: May 2, 2016 at 7:19:32 AM

Latest Report: May 2, 2016 at 6:30 AM


Visibility: 2 mi

Pressure: 29.62 "Hg

Humidity: 20%

Dew Point: 37 °F

Location of BagpatLocation

Historic Weather in Bagpat — Graph

°F

Bagpat Temperature Yesterday

Maximum temperature yesterday: 109 °F (at 2:30 PM)
Minimum temperature yesterday: 79 °F (at 5:00 AM)
Average temperature yesterday: 94 °F

High & Low Weather Summary for the Past Weeks

 TemperatureHumidityPressure
High109 °F (Apr 28, 4:00 PM)47% (Apr 21, 6:30 AM)29.83 "Hg (Apr 21, 6:30 AM)
Low72 °F (Apr 24, 4:30 AM)6% (Apr 25, 3:00 PM)29.53 "Hg (Apr 22, 4:30 PM)
Average92 °F19%29.70 "Hg
* Reported Apr 17 5:30 AM — May 2 6:00 AM, Bagpat, Weather by CustomWeather, © 2016

Note: Actual official high and low records may vary slightly from our data, if they occured in-between our weather recording intervals... More about our weather records

Advertising

Bagpat Weather History for the Previous 24 Hours

Scroll right to see more
 ConditionsComfort  
Time TempWeatherWind HumidityBarometerVisibility
6:00 AM
Mon, May 2
82 °FHaze.3 mph21%29.62 "Hg1 mi
5:00 AM81 °FHaze.No wind21%29.59 "Hg1 mi
4:00 AM81 °FHaze.No wind21%29.59 "Hg1 mi
3:30 AM81 °FHaze.No wind21%29.59 "Hg1 mi
3:00 AM84 °FHaze.No wind20%29.59 "Hg1 mi
2:30 AM84 °FHaze.No wind20%29.59 "Hg1 mi
1:30 AM86 °FHaze.No wind19%29.62 "Hg1 mi
1:00 AM88 °FHaze.No wind18%29.62 "Hg1 mi
12:30 AM90 °FHaze.No wind17%29.62 "Hg1 mi
12:00 AM90 °FHaze.No wind17%29.62 "Hg1 mi
11:30 PM
Sun, May 1
91 °FHaze.No wind16%29.62 "Hg1 mi
11:00 PM91 °FHaze.No wind16%29.62 "Hg2 mi
10:30 PM91 °FHaze.No wind16%29.62 "Hg2 mi
10:00 PM93 °FHaze.No wind15%29.62 "Hg2 mi
9:30 PM95 °FHaze.No wind13%29.59 "Hg2 mi
9:00 PM95 °FHaze.No wind13%29.59 "Hg2 mi
8:30 PM97 °FHaze.No wind11%29.59 "Hg2 mi
8:00 PM99 °FHaze.No wind10%29.59 "Hg2 mi
7:30 PM100 °FHaze.3 mph10%29.59 "Hg2 mi
7:00 PM102 °FHaze.6 mph9%29.59 "Hg2 mi
6:30 PM104 °FHaze.6 mph7%29.56 "Hg2 mi
6:00 PM106 °FDuststorm.9 mph7%29.56 "Hg2 mi
5:30 PM106 °FDuststorm.9 mph7%29.56 "Hg2 mi
5:00 PM109 °FDuststorm.9 mph6%29.56 "Hg2 mi
4:30 PM109 °FDuststorm.9 mph6%29.59 "Hg2 mi
4:00 PM108 °FDuststorm.9 mph7%29.59 "Hg2 mi
3:30 PM108 °FDuststorm.9 mph7%29.59 "Hg2 mi
3:00 PM109 °FDuststorm.9 mph6%29.62 "Hg2 mi
2:30 PM109 °FDuststorm.9 mph6%29.62 "Hg2 mi
2:00 PM108 °FDuststorm.9 mph8%29.62 "Hg2 mi
1:30 PM106 °FDuststorm.9 mph8%29.65 "Hg2 mi
1:00 PM106 °FDuststorm.12 mph9%29.68 "Hg2 mi
12:30 PM104 °FDuststorm.10 mph10%29.68 "Hg2 mi
11:30 AM102 °FDuststorm.9 mph11%29.71 "Hg2 mi
11:00 AM100 °FDuststorm.7 mph11%29.71 "Hg2 mi
10:30 AM99 °FDuststorm.9 mph15%29.71 "Hg1 mi
10:00 AM95 °FDuststorm.7 mph15%29.71 "Hg1 mi
9:00 AM90 °FClear.7 mph16%29.71 "Hg1 mi
8:30 AM88 °FClear.7 mph18%29.71 "Hg1 mi
7:30 AM82 °FClear.5 mph21%29.71 "Hg1 mi
7:00 AM81 °FClear.5 mph23%29.68 "Hg1 mi
Weather by CustomWeather, © 2016

See weather overviewHow to use our weather pages